Location: Goll?ig?dem
(16.6773°N, 80.7332°E)
Time: 01:32:34
(UTC+00:00)

Cosmos 1634 Rocket - Pass Details

Date: 21 April 2021
Orbit: 958 x 993 km, 82.9° (Epoch: 07 May)

Event Time Altitude Azimuth Distance (km) Brightness Sun altitude
Rises 14:05:54 0° 181° (S) 3,692 6.8 -17.4°
Reaches altitude 10° 14:08:25 10° 180° (S) 2,742 6.2 -18.0°
Maximum altitude 14:14:43 83° 93° (E) 995 3.9 -19.4°
Drops below altitude 10° 14:20:59 10° 6° (N) 2,726 6.5 -20.8°
Sets 14:23:29 0° 6° (N) 3,670 7.2 -21.4°
